Hourly Data Report for June 03, 2021

BORDEN AWOS
ONTARIO
Current Station Operator: DND

44°16'20.000" N
79°54'42.000" W
222.50 m
611B002
71534
YBN

Download Data

Hourly Data (June 2021)
Hourly Data Report for June 3, 2021
TIME
LST
Temp Definition
°C
Dew Point Definition
°C
Rel Hum Definition
%
Precip. Amount Definition
mm

Wind Dir Definition
10's deg

Wind Spd Definition
km/h
Visibility Definition
km
Stn Press Definition
kPa
Hmdx Definition


Wind Chill Definition


Weather Definition


00:00 15.2 13.3 88   18 7 11.3 98.90     Rain
01:00 14.7 13.5 93   12 6 6.4 98.83     Rain
02:00
03:00 14.5 13.6 94   12 6 4.8 98.71     Rain
04:00 14.6 13.6 94   15 9 4.0 98.67     Drizzle
05:00 14.8 13.9 94   13 7 4.0 98.61     LegendNANA
06:00 15.4 14.3 93   14 9 4.0 98.58     Rain
07:00 16.2 14.8 91   17 9 6.4 98.59     LegendNANA
08:00 17.7 15.5 87   16 11 14.5 98.56     LegendNANA
09:00 18.2 15.3 83   18 7 14.5 98.55     LegendNANA
10:00 18.6 15.3 81   17 11 14.5 98.53     Rain
11:00 16.9 15.3 90   28 9 3.9 98.54     Rain
12:00 20.9 17.0 78   24 6 14.5 98.50 26   LegendNANA
13:00 21.7 14.4 63   32 6 14.5 98.44 25   LegendNANA
14:00 22.6 16.2 67   36 11 14.5 98.43 27   LegendNANA
15:00 23.6 16.0 62   34 9 14.5 98.38 28   LegendNANA
16:00 23.8 15.9 61   35 9 14.5 98.36 28   LegendNANA
17:00 23.8 15.3 59   34 11 14.5 98.33 28   LegendNANA
18:00 22.9 13.7 56   36 9 14.5 98.32 26   LegendNANA
19:00 22.3 13.5 58   34 4 14.5 98.33 25   LegendNANA
20:00 17.8 14.3 80     0 14.5 98.36     LegendNANA
21:00 15.4 13.6 89   19 4 14.5 98.41     LegendNANA
22:00 14.2 12.6 90   20 4 14.5 98.43     LegendNANA
23:00 13.9 12.5 91   22 9 14.5 98.43     LegendNANA

Notes on Data Quality.

Legend

  • E = Estimated
  • M = Missing
  • NA = Not Available*
  • [empty] = Indicates an unobserved value
Date modified: